Regional Weather Roundup
Issued by NWS

Home | Current Version | Previous Version | Text Only | Print | Product List | Glossary Off
Versions: 1 2 3 4 5 6 7 8 9 10 11 12 13 14 15 16 17 18 19 20 21 22 23 24 25 26 27

000
ASUS45 KTFX 290210
RWRMT
MONTANA REGIONAL WEATHER ROUNDUP
NATIONAL WEATHER SERVICE GREAT FALLS MT
800 PM MDT SUN AUG 28 2016

NOTE: "FAIR" INDICATES FEW OR NO CLOUDS BELOW 12000 FEET WITH NO
SIGNIFICANT WEATHER AND/OR OBSTRUCTIONS TO VISIBILITY.

MTZ001>007-043-290300-
WEST OF THE DIVIDE

CITY           SKY/WX    TMP DP  RH WIND       PRES   REMARKS
KALISPELL      MOCLDY    73  37  27 W8        30.10R
MISSOULA       PTCLDY    78  33  19 W16       30.11R HAZE
BUTTE          LGT RAIN  72  34  24 N5        30.22R
MULLAN PASS    CLEAR     60  31  33 SW5       30.27R
DEER LODGE       N/A     72  32  23 NW9       30.19R
EUREKA           N/A     75  39  27 W3        30.09R
HAMILTON         N/A     73  45  35 CALM      30.12R
LIBBY            N/A     75  37  25 CALM      30.10R
PLAINS           N/A     76  39  26 W2        30.09R
RONAN            N/A     74  42  31 CALM      30.15R
$$

MTZ008-052>055-290300-
SOUTHWEST MONTANA

CITY           SKY/WX    TMP DP  RH WIND       PRES   REMARKS
BOZEMAN        CLOUDY    75  43  31 N6        30.14R
DILLON         CLEAR     74  38  27 N7        30.15R
W YELLOWSTONE  CLOUDY    70  27  19 S6        30.29R
ENNIS          CLEAR     75  36  23 N10       30.22R
THREE FORKS      N/A     76  76 100 CALM      30.11R
TWIN BRIDGES     N/A     80  35  19 NW6       30.13R
$$

MTZ009-010-012-014-046-048-049-054-290300-
EAST SLOPES AND CENTRAL MONTANA

CITY           SKY/WX    TMP DP  RH WIND       PRES   REMARKS
CUT BANK       CLEAR     62  41  46 E9        30.18R
GREAT FALLS    PTCLDY    68  45  43 NE13      30.16R
MALMSTROM AFB  PTCLDY    67  46  47 MISG      30.16R
HELENA         CLEAR     76  32  20 NW6       30.10R
CHOTEAU          N/A     63  45  51 NE6       30.20R
CONRAD           N/A     66  49  54 N5        30.19R
$$

MTZ011-013-016-021-045-047-050-051-290300-
NORTH CENTRAL MONTANA

CITY           SKY/WX    TMP DP  RH WIND       PRES   REMARKS
HAVRE          PTCLDY    68  45  43 N7        30.14R
LEWISTOWN      PTCLDY    72  43  35 NE5       30.17R
N BAR RANCH    CLOUDY    72  43  35 NE9       30.20R
CHINOOK          N/A     70  46  43 N6        30.14R
$$

MTZ017>020-022>027-061-062-290300-
NORTHEAST MONTANA

CITY           SKY/WX    TMP DP  RH WIND       PRES   REMARKS
GLASGOW        PTCLDY    74  48  39 N7        30.07R
JORDAN           N/A     78  44  29 N9        30.07R
SIDNEY         CLEAR     77  50  38 N9        30.03R
WOLF POINT     CLEAR     78  47  33 N14       30.05R
POPLAR           N/A     73  52  46 NE7       30.06R
SCOBEY           N/A     68  46  45 CALM      30.10R
$$

MTZ028>42-056>058-290300-
SOUTHCENTRAL AND SOUTHEAST MONTANA

CITY           SKY/WX    TMP DP  RH WIND       PRES   REMARKS
BAKER          CLEAR     77  43  29 N10       30.06R
BILLINGS       CLOUDY    79  42  26 N12       30.08R
LIVINGSTON     CLOUDY    80  38  22 N7        30.14R
MILES CITY     CLEAR     80  42  25 NE10      30.02R
EKALAKA          N/A     75  42  30 CALM      30.05R
FORSYTH          N/A     81  45  28 NE3       30.02R
LAUREL           N/A     78  41  26 N6        30.07
ROUNDUP          N/A     77  43  29 N12       30.01R
$$

REGIONAL REPORTS...DAKOTAS

CITY           SKY/WX    TMP DP  RH WIND       PRES   REMARKS
WILLISTON      CLEAR     76  48  37 N12       30.04R
MINOT          CLEAR     74  55  51 NW12      29.96R
DICKINSON      CLOUDY    77  43  29 N10       30.01R
CROSBY           N/A     64  50  59 NW7       30.07R HAZE
WATFORD CITY     N/A     73  50  43 N9        30.05R
BISMARCK       CLEAR     76  61  59 E6        29.93R
GRAND FORKS    CLOUDY    78  69  73 SE9       29.89F
FARGO          PTCLDY    83  73  72 S17G24    29.91S
BUFFALO SD       N/A     80  45  28 N13       29.96R
RAPID CITY     CLEAR     73  50  44 NE14      30.01R
$$

REGIONAL REPORTS...WYOMING/IDAHO/WASHINGTON

CITY           SKY/WX    TMP DP  RH WIND       PRES   REMARKS
GILLETTE       CLEAR     72  32  23 NW6       30.09R
SHERIDAN       CLEAR     71  43  36 NW6       30.09R
BUFFALO WY     CLEAR     76  33  21 NW12      30.17R
CODY           CLOUDY    73  37  27 NW5       30.16R
YELLOWSTONE LA   N/A     62  34  35 CALM      30.40R
IDAHO FALLS    CLEAR     79  38  22 S15       30.15R
SALMON         CLEAR     75  41  29 N7        30.10R
BOISE          PTCLDY    86  40  19 N9        30.03F
SPOKANE        MOCLDY    79  31  17 SW7       30.06S
$$

REGIONAL REPORTS...ALBERTA

CITY           SKY/WX    TMP DP  RH WIND       PRES   REMARKS
EDMONTON       PTCLDY    52  39  62 N5        30.16R
CALGARY        MOCLDY    54  43  66 S12       30.19R
LETHBRIDGE     MOCLDY    57  43  58 N5        30.19R
MEDICINE HAT   PTCLDY    59  45  58 N8        30.17R
WATERTON GATE    N/A     54  43  66 NE3         N/A
MILK RIVER       N/A     55  43  62 NE7         N/A
ONEFOUR          N/A     57  43  58 NW8         N/A
$$

REGIONAL REPORTS...SASKATCHEWAN

CITY           SKY/WX    TMP DP  RH WIND       PRES   REMARKS
SWIFT CURRENT  CLEAR     54  45  71 NW10      30.16R
REGINA         PTCLDY    61  48  63 NW13      30.10R
SASKATOON      MOCLDY    55  45  67 NW14G21   30.13R
CYPRESS HILLS    N/A     50  41  71 N5          N/A
VAL MARIE        N/A     61  43  51 N10         N/A
ROCKGLEN         N/A     61  48  63 N8          N/A
ASSINIBOIA       N/A     52  43  71 W3          N/A
$$




USA.gov is the U.S. government's official web portal to all federal, state and local government web resources and services.